TimeEST,TemperatureF,Dew PointF,Humidity,Sea Level PressureIn,VisibilityMPH,Wind Direction,Wind SpeedMPH,Gust SpeedMPH,PrecipitationIn,Events,Conditions,WindDirDegrees,DateUTC
12:54 AM,26.1,16.0,66,30.31,10.0,ESE,3.5,-,N/A,,Overcast,120,2013-01-28 05:54:00
1:54 AM,27.0,17.1,66,30.30,10.0,Calm,Calm,-,N/A,,Overcast,0,2013-01-28 06:54:00
2:54 AM,27.0,17.1,66,30.28,10.0,South,4.6,-,N/A,,Overcast,170,2013-01-28 07:54:00
3:54 AM,28.9,19.9,69,30.24,8.0,South,6.9,-,0.00,Snow,Light Snow,180,2013-01-28 08:54:00
4:03 AM,28.4,21.2,74,30.21,2.5,South,6.9,-,0.00,Snow,Light Snow,180,2013-01-28 09:03:00
4:37 AM,26.6,24.8,93,30.19,1.5,SE,5.8,-,0.01,Snow,Light Snow,140,2013-01-28 09:37:00
4:54 AM,27.0,24.1,89,30.20,1.2,SE,6.9,-,0.03,Snow,Light Snow,130,2013-01-28 09:54:00
5:54 AM,28.9,27.0,92,30.14,1.2,ESE,9.2,-,0.07,Snow,Light Snow,110,2013-01-28 10:54:00
6:11 AM,30.2,28.4,93,30.10,2.0,SE,9.2,-,0.02,Snow,Light Snow,130,2013-01-28 11:11:00
6:36 AM,30.2,28.4,93,30.08,4.0,ESE,10.4,-,0.05,Rain,Light Freezing Rain,120,2013-01-28 11:36:00
6:54 AM,30.9,28.9,92,30.09,5.0,SE,10.4,-,0.08,Rain,Light Freezing Rain,130,2013-01-28 11:54:00
7:00 AM,30.2,28.4,93,30.05,6.0,SE,11.5,-,0.01,Rain,Light Freezing Rain,130,2013-01-28 12:00:00
7:26 AM,32.0,30.2,93,30.06,5.0,SSE,5.8,-,0.03,Rain,Light Freezing Rain,150,2013-01-28 12:26:00
7:54 AM,32.0,30.0,92,30.07,5.0,SSE,5.8,-,0.06,Rain,Light Freezing Rain,160,2013-01-28 12:54:00
8:04 AM,33.8,30.2,87,30.03,5.0,South,5.8,-,0.01,Rain,Light Rain,170,2013-01-28 13:04:00
8:54 AM,34.0,32.0,92,30.04,3.0,South,6.9,-,0.01,,Light Drizzle,180,2013-01-28 13:54:00
8:59 AM,33.8,32.0,93,30.00,2.0,South,6.9,-,0.00,Rain,Light Rain,180,2013-01-28 13:59:00
9:21 AM,35.6,33.8,93,29.98,3.0,South,8.1,-,0.01,,Light Drizzle,190,2013-01-28 14:21:00
9:38 AM,35.6,33.8,93,29.98,6.0,SSW,9.2,-,0.01,,Overcast,200,2013-01-28 14:38:00
9:54 AM,36.0,34.0,93,29.99,8.0,SSW,10.4,-,0.01,,Overcast,200,2013-01-28 14:54:00
10:01 AM,35.6,33.8,93,29.96,6.0,SSW,11.5,-,0.00,Rain,Light Rain,200,2013-01-28 15:01:00
10:39 AM,37.4,33.8,87,29.95,4.0,SSW,13.8,-,0.00,,Light Drizzle,200,2013-01-28 15:39:00
10:42 AM,37.4,33.8,87,29.95,2.0,SSW,13.8,-,0.00,,Light Drizzle,210,2013-01-28 15:42:00
10:54 AM,37.0,35.1,93,29.98,1.5,SSW,15.0,-,0.01,Rain,Light Rain,210,2013-01-28 15:54:00
11:07 AM,37.4,35.6,93,29.95,2.0,SSW,15.0,-,0.00,Rain,Light Rain,210,2013-01-28 16:07:00
11:21 AM,37.4,35.6,93,29.94,4.0,SSW,15.0,-,0.00,Rain,Light Rain,210,2013-01-28 16:21:00
11:24 AM,37.4,35.6,93,29.94,4.0,SSW,15.0,-,0.00,Rain,Light Rain,210,2013-01-28 16:24:00
11:35 AM,37.4,35.6,93,29.94,2.0,SSW,12.7,-,0.00,Rain,Light Rain,210,2013-01-28 16:35:00
11:49 AM,37.4,35.6,93,29.93,3.0,SSW,13.8,-,0.01,Rain,Light Rain,210,2013-01-28 16:49:00
11:54 AM,37.0,36.0,96,29.95,3.0,SSW,12.7,-,0.01,Rain,Light Rain,210,2013-01-28 16:54:00
12:17 PM,37.4,35.6,93,29.91,2.0,SW,10.4,-,0.00,Rain,Light Rain,220,2013-01-28 17:17:00
12:30 PM,37.4,35.6,93,29.91,1.8,SSW,12.7,-,0.00,,Light Drizzle,210,2013-01-28 17:30:00
12:54 PM,37.9,37.0,97,29.91,1.2,SSW,15.0,-,0.01,Rain,Light Rain,210,2013-01-28 17:54:00
1:09 PM,37.4,37.4,100,29.87,2.0,SSW,16.1,-,0.00,Rain,Light Rain,210,2013-01-28 18:09:00
1:36 PM,37.4,37.4,100,29.86,1.5,SSW,12.7,-,0.01,,Light Drizzle,210,2013-01-28 18:36:00
1:54 PM,39.0,37.9,96,29.87,1.2,SSW,13.8,-,0.01,Rain,Light Rain,210,2013-01-28 18:54:00
2:54 PM,39.9,39.0,97,29.86,1.2,SSW,13.8,-,0.03,Rain,Light Rain,210,2013-01-28 19:54:00
3:20 PM,41.0,39.2,93,29.83,2.5,SW,16.1,-,0.02,Rain,Light Rain,220,2013-01-28 20:20:00
3:36 PM,42.8,41.0,93,29.83,1.5,SW,16.1,21.9,0.03,Rain,Light Rain,230,2013-01-28 20:36:00
3:54 PM,43.0,41.0,93,29.86,1.0,SW,17.3,26.5,0.03,Rain,Light Rain,230,2013-01-28 20:54:00
4:50 PM,42.8,42.8,100,29.84,0.8,WSW,16.1,25.3,0.04,Rain,Light Rain,240,2013-01-28 21:50:00
4:54 PM,42.1,41.0,96,29.87,0.8,WSW,17.3,25.3,0.04,Rain,Light Rain,240,2013-01-28 21:54:00
5:31 PM,41.0,41.0,100,29.86,1.2,WSW,15.0,24.2,0.02,Rain,Light Rain,250,2013-01-28 22:31:00
5:54 PM,41.0,41.0,100,29.88,1.8,WSW,19.6,25.3,0.03,Rain,Light Rain,240,2013-01-28 22:54:00
6:54 PM,43.0,42.1,97,29.90,1.2,WSW,20.7,26.5,0.01,,Light Drizzle,250,2013-01-28 23:54:00
7:25 PM,42.8,41.0,93,29.89,0.5,WSW,19.6,29.9,0.01,Fog,Fog,250,2013-01-29 00:25:00
7:54 PM,42.1,41.0,96,29.92,0.5,West,15.0,-,0.01,Fog,Fog,260,2013-01-29 00:54:00
8:37 PM,41.0,39.2,93,29.91,1.0,West,15.0,-,0.00,,Light Drizzle,260,2013-01-29 01:37:00
8:54 PM,41.0,39.9,96,29.94,1.8,WSW,12.7,-,0.00,,Light Drizzle,250,2013-01-29 01:54:00
9:54 PM,39.9,39.0,97,29.96,1.5,West,9.2,-,0.01,,Overcast,270,2013-01-29 02:54:00
10:34 PM,39.2,39.2,100,29.95,1.2,WSW,8.1,-,N/A,,Overcast,250,2013-01-29 03:34:00
10:54 PM,39.0,39.0,100,29.98,1.8,West,9.2,-,N/A,,Overcast,260,2013-01-29 03:54:00
11:15 PM,39.2,39.2,100,29.96,3.0,WNW,10.4,-,N/A,,Overcast,290,2013-01-29 04:15:00
11:38 PM,39.2,37.4,93,29.97,4.0,West,6.9,-,N/A,,Overcast,270,2013-01-29 04:38:00
11:54 PM,39.9,37.9,93,30.00,4.0,West,9.2,-,N/A,,Overcast,270,2013-01-29 04:54:00